When you browse on this site, cookies collect data to enhance your experience and personalize the content and advertising you see.
Visit our Privacy Policy to learn more. By continuing to use the site, you agree to this use of cookies and data.
  • In Portugal
  • List of Countries
  • For 7 days
  • Water Temperature
  • Weather Map
  • Weather Widgets
  • user-avatar
    Login

    Hourly Weather Merida

    Today, 23 August, Friday

    Time Temperature Precipitation Wind Pressure Humidity
    00:00 +25°C° 0 mm 1 mps 742 mmHg 37%
    01:00 +24°C° 0 mm 1 mps 742 mmHg 41%
    02:00 +24°C° 0 mm 1 mps 742 mmHg 44%
    03:00 +23°C° 0 mm 1 mps 741 mmHg 48%
    04:00 +22°C° 0 mm 1 mps 742 mmHg 51%
    05:00 +22°C° 0 mm 1 mps 742 mmHg 54%
    06:00 +22°C° 0 mm 1 mps 742 mmHg 57%
    07:00 +25°C° 0 mm 1 mps 742 mmHg 49%
    08:00 +28°C° 0 mm 2 mps 743 mmHg 41%
    09:00 +31°C° 0 mm 2 mps 743 mmHg 34%
    10:00 +34°C° 0 mm 2 mps 743 mmHg 30%
    11:00 +36°C° 0 mm 2 mps 742 mmHg 26%
    12:00 +38°C° 0 mm 2 mps 742 mmHg 22%
    13:00 +39°C° 0 mm 2 mps 742 mmHg 20%
    14:00 +40°C° 0 mm 2 mps 741 mmHg 19%
    15:00 +41°C° 0 mm 2 mps 740 mmHg 17%
    16:00 +40°C° 0 mm 2 mps 740 mmHg 18%
    17:00 +40°C° 0 mm 2 mps 740 mmHg 18%
    18:00 +39°C° 0 mm 2 mps 740 mmHg 18%
    19:00 +36°C° 0 mm 2 mps 740 mmHg 20%
    20:00 +34°C° 0 mm 2 mps 740 mmHg 23%
    21:00 +31°C° 0 mm 2 mps 741 mmHg 25%
    22:00 +29°C° 0 mm 2 mps 741 mmHg 28%
    23:00 +28°C° 0 mm 2 mps 741 mmHg 31%

    Tomorrow, 24 August, Saturday

    Time Temperature Precipitation Wind Pressure Humidity
    00:00 +27°C° 0 mm 1 mps 741 mmHg 34%
    01:00 +26°C° 0 mm 1 mps 741 mmHg 36%
    02:00 +25°C° 0 mm 1 mps 741 mmHg 38%
    03:00 +24°C° 0 mm 1 mps 741 mmHg 40%
    04:00 +23°C° 0 mm 1 mps 741 mmHg 43%
    05:00 +23°C° 0 mm 1 mps 741 mmHg 46%
    06:00 +22°C° 0 mm 1 mps 741 mmHg 48%
    07:00 +24°C° 0 mm 1 mps 741 mmHg 43%
    08:00 +27°C° 0 mm 1 mps 742 mmHg 37%
    09:00 +30°C° 0 mm 2 mps 742 mmHg 31%
    10:00 +33°C° 0 mm 1 mps 742 mmHg 27%
    11:00 +35°C° 0 mm 1 mps 741 mmHg 22%
    12:00 +39°C° 0 mm 1 mps 741 mmHg 18%
    13:00 +40°C° 0 mm 1 mps 741 mmHg 16%
    14:00 +41°C° 0 mm 1 mps 740 mmHg 15%
    15:00 +42°C° 0 mm 1 mps 740 mmHg 14%
    16:00 +41°C° 0 mm 2 mps 739 mmHg 14%
    17:00 +40°C° 0 mm 2 mps 739 mmHg 15%
    18:00 +40°C° 0 mm 2 mps 739 mmHg 15%
    19:00 +37°C° 0 mm 2 mps 739 mmHg 19%
    20:00 +34°C° 0 mm 2 mps 740 mmHg 23%
    21:00 +30°C° 0 mm 2 mps 740 mmHg 27%
    22:00 +28°C° 0 mm 2 mps 740 mmHg 31%
    23:00 +27°C° 0 mm 2 mps 740 mmHg 35%

    Day after tomorrow, 25 August, Sunday

    Time Temperature Precipitation Wind Pressure Humidity
    00:00 +25°C° 0 mm 2 mps 740 mmHg 39%
    01:00 +24°C° 0 mm 2 mps 740 mmHg 41%
    02:00 +23°C° 0 mm 2 mps 740 mmHg 43%
    03:00 +21°C° 0 mm 2 mps 739 mmHg 45%
    04:00 +22°C° 0 mm 1 mps 740 mmHg 47%
    05:00 +21°C° 0 mm 1 mps 740 mmHg 49%
    06:00 +20°C° 0 mm 1 mps 740 mmHg 50%
    07:00 +23°C° 0 mm 1 mps 740 mmHg 44%
    08:00 +25°C° 0 mm 1 mps 740 mmHg 37%
    09:00 +28°C° 0 mm 1 mps 741 mmHg 31%
    10:00 +30°C° 0 mm 2 mps 740 mmHg 27%
    11:00 +32°C° 0 mm 2 mps 740 mmHg 23%
    12:00 +35°C° 0 mm 2 mps 740 mmHg 20%
    13:00 +36°C° 0 mm 2 mps 739 mmHg 19%
    14:00 +37°C° 0 mm 2 mps 739 mmHg 18%
    15:00 +38°C° 0 mm 2 mps 738 mmHg 17%
    16:00 +38°C° 0 mm 3 mps 738 mmHg 18%
    17:00 +37°C° 0 mm 3 mps 738 mmHg 18%
    18:00 +37°C° 0 mm 4 mps 737 mmHg 18%
    19:00 +34°C° 0 mm 3 mps 738 mmHg 23%
    20:00 +30°C° 0 mm 3 mps 738 mmHg 28%
    21:00 +27°C° 0 mm 3 mps 738 mmHg 33%
    22:00 +26°C° 0.1 mm 3 mps 739 mmHg 40%
    23:00 +24°C° 0.1 mm 2 mps 739 mmHg 46%

    26 August, Monday

    Time Temperature Precipitation Wind Pressure Humidity
    00:00 +23°C° 0.1 mm 2 mps 739 mmHg 52%
    01:00 +21°C° 0.4 mm 2 mps 738 mmHg 55%
    02:00 +21°C° 0.4 mm 1 mps 738 mmHg 59%
    03:00 +19°C° 0.4 mm 0 mps 738 mmHg 62%
    04:00 +18°C° 0 mm 0 mps 738 mmHg 63%
    05:00 +18°C° 0 mm 0 mps 738 mmHg 64%
    06:00 +17°C° 0 mm 0 mps 738 mmHg 65%
    07:00 +22°C° 0 mm 1 mps 739 mmHg 58%
    08:00 +24°C° 0 mm 1 mps 739 mmHg 51%
    09:00 +27°C° 0 mm 1 mps 739 mmHg 44%
    10:00 +29°C° 0 mm 1 mps 739 mmHg 39%
    11:00 +31°C° 0 mm 1 mps 739 mmHg 33%
    12:00 +33°C° 0 mm 1 mps 739 mmHg 28%
    13:00 +34°C° 0 mm 1 mps 738 mmHg 26%
    14:00 +34°C° 0 mm 1 mps 738 mmHg 25%
    15:00 +36°C° 0 mm 2 mps 737 mmHg 24%
    16:00 +34°C° 0.3 mm 3 mps 737 mmHg 28%
    17:00 +32°C° 0.3 mm 5 mps 738 mmHg 32%
    18:00 +29°C° 0.3 mm 6 mps 738 mmHg 36%
    19:00 +28°C° 0.1 mm 5 mps 738 mmHg 40%
    20:00 +26°C° 0.1 mm 4 mps 739 mmHg 44%
    21:00 +25°C° 0.1 mm 3 mps 740 mmHg 47%
    22:00 +24°C° 0 mm 3 mps 740 mmHg 51%
    23:00 +22°C° 0 mm 3 mps 740 mmHg 54%

    27 August, Tuesday

    Time Temperature Precipitation Wind Pressure Humidity
    00:00 +22°C° 0 mm 3 mps 740 mmHg 58%
    01:00 +21°C° 0 mm 3 mps 740 mmHg 62%
    02:00 +20°C° 0 mm 2 mps 740 mmHg 66%
    03:00 +20°C° 0 mm 1 mps 740 mmHg 70%
    04:00 +20°C° 0 mm 1 mps 740 mmHg 74%
    05:00 +19°C° 0 mm 1 mps 740 mmHg 78%
    06:00 +19°C° 0 mm 1 mps 740 mmHg 82%
    07:00 +21°C° 0 mm 1 mps 741 mmHg 72%
    08:00 +23°C° 0 mm 1 mps 741 mmHg 61%
    09:00 +26°C° 0 mm 1 mps 741 mmHg 51%
    10:00 +28°C° 0 mm 1 mps 741 mmHg 44%
    11:00 +31°C° 0 mm 1 mps 741 mmHg 36%
    12:00 +34°C° 0 mm 1 mps 741 mmHg 29%
    13:00 +35°C° 0 mm 1 mps 741 mmHg 26%
    14:00 +36°C° 0 mm 1 mps 740 mmHg 24%
    15:00 +37°C° 0 mm 1 mps 740 mmHg 21%
    16:00 +36°C° 0 mm 1 mps 740 mmHg 21%
    17:00 +36°C° 0 mm 1 mps 740 mmHg 21%
    18:00 +35°C° 0 mm 1 mps 740 mmHg 21%
    19:00 +33°C° 0 mm 1 mps 740 mmHg 25%
    20:00 +31°C° 0 mm 1 mps 740 mmHg 29%
    21:00 +29°C° 0 mm 1 mps 741 mmHg 32%
    22:00 +28°C° 0 mm 1 mps 741 mmHg 34%
    23:00 +27°C° 0 mm 1 mps 741 mmHg 35%

    28 August, Wednesday

    Time Temperature Precipitation Wind Pressure Humidity
    00:00 +27°C° 0 mm 1 mps 742 mmHg 37%
    01:00 +26°C° 0 mm 1 mps 741 mmHg 38%
    02:00 +25°C° 0 mm 1 mps 741 mmHg 40%
    03:00 +25°C° 0 mm 1 mps 741 mmHg 42%
    04:00 +25°C° 0 mm 1 mps 741 mmHg 43%
    05:00 +24°C° 0 mm 1 mps 741 mmHg 44%
    06:00 +24°C° 0 mm 1 mps 742 mmHg 44%
    07:00 +27°C° 0 mm 1 mps 742 mmHg 39%
    08:00 +29°C° 0 mm 1 mps 742 mmHg 34%
    09:00 +32°C° 0 mm 2 mps 742 mmHg 28%
    10:00 +35°C° 0 mm 2 mps 742 mmHg 25%
    11:00 +37°C° 0 mm 2 mps 742 mmHg 22%
    12:00 +39°C° 0 mm 2 mps 741 mmHg 19%
    13:00 +39°C° 0 mm 2 mps 741 mmHg 18%
    14:00 +40°C° 0 mm 2 mps 740 mmHg 16%
    15:00 +41°C° 0 mm 2 mps 740 mmHg 15%
    16:00 +40°C° 0 mm 2 mps 740 mmHg 15%
    17:00 +40°C° 0 mm 2 mps 740 mmHg 16%
    18:00 +39°C° 0 mm 2 mps 740 mmHg 16%
    19:00 +37°C° 0 mm 2 mps 740 mmHg 19%
    20:00 +35°C° 0 mm 2 mps 740 mmHg 22%
    21:00 +31°C° 0 mm 3 mps 741 mmHg 25%
    22:00 +30°C° 0 mm 2 mps 741 mmHg 30%
    23:00 +29°C° 0 mm 2 mps 741 mmHg 35%
    Show more